Zurück zum Katalog

SL-8 R/B

AktivLEO
NORAD 4391·ROCKET BODY·🇷🇺 Russia

Gestartet Apr 25, 1970 von Plesetsk Cosmodrome

Loading…

Nächste Überflüge (nächste 24 Stunden)

TLE

AktuellSource: Space-Track

Epoche: Sep 14, 2026, 03:28 UTC

1 04391U 70036J   26257.14489463  .00000015  00000-0  24017-3 0  9997
2 04391  74.0291 148.7153 0075605  59.0815  92.8318 12.34993949542018

Verfolge SL-8 R/B in Echtzeit mit AllMySat

Download on the App Store